Regional Weather Roundup
Issued by NWS

Home | Current Version | Previous Version | Graphics & Text | Print | Product List | Glossary On
Versions: 1 2 3 4 5 6 7 8 9 10 11 12 13 14 15 16 17 18 19 20 21 22 23 24 25 26 27 28 29 30 31 32 33 34 35 36 37 38 39 40 41 42 43 44 45 46 47 48 49 50
991
ASUS44 KJAN 292103
RWRMS

MISSISSIPPI HOURLY WEATHER ROUNDUP
NATIONAL WEATHER SERVICE JACKSON MS
400 PM CDT MON SEP 29 2014

NOTE: "FAIR: INDICATES FEW OR NO CLOUDS BELOW 12,000 FEET WITH NO
SIGNIFICANT WEATHER AND/OR OBSTRUCTIONS TO VISIBILITY.

MSZ001>002-007>008-010>013-018>021-025>028-034>036-292200-
NORTHWEST MISSISSIPPI

CITY           SKY/WX    TMP DP  RH WIND       PRES   REMARKS
CLARKSDALE     FAIR      86  61  42 N8        29.93F
CLEVELAND      FAIR      88  60  39 N10G16    29.91F
GREENWOOD      SUNNY     85  62  46 N8        29.91F
GREENVILLE     MOSUNNY   89  58  34 N10       29.90F
GRENADA        FAIR      84  61  45 N7        29.92F
OLIVE BRANCH   MOSUNNY   82  64  54 NE6       29.95F
OXFORD         FAIR      82  59  44 N5        29.95F
TUNICA         PTCLDY    84  59  42 NE6       29.94F
$$

MSZ003>006-009-014>017-022>024-029>033-037>039-292200-
NORTHEAST MISSISSIPPI

CITY           SKY/WX    TMP DP  RH WIND       PRES   REMARKS
COLUMBUS AFB   SUNNY     86  62  44 N8        29.90F
CORINTH        FAIR      86  57  37 N8        29.93F
STARKVILLE     FAIR      82  61  47 NE10      29.91S
TUPELO         SUNNY     86  61  42 E10       29.92F
$$

MSZ040-058-292200-
CENTRAL MISSISSIPPI

CITY           SKY/WX    TMP DP  RH WIND       PRES   REMARKS
JACKSON INTL   PTSUNNY   88  64  44 NE7       29.89F
JACKSON HAWKNS PTSUNNY   87  64  46 E9        29.90F
MERIDIAN KEY   PTSUNNY   85  66  53 N14       29.88F
MERIDIAN NAS   CLOUDY    83  66  56 N9        29.90S
RAYMOND        MOCLDY    82  77  83 CALM      29.90S HX  91
VICKSBURG      SUNNY     89  67  47 N14       29.89F HX  92
$$

MSZ059>079-292200-
SOUTH MISSISSIPPI

CITY           SKY/WX    TMP DP  RH WIND       PRES   REMARKS
BROOKHAVEN     FAIR      84  68  58 N6        29.91S
COLUMBIA       MOCLDY    82  72  69 NE6       29.87S
HATTIESBURG    MOSUNNY   87  71  58 NW6       29.87F HX  93
MCCOMB         MOSUNNY   84  68  58 E7        29.88F
NATCHEZ        CLOUDY    81  72  74 NE5       29.90S
PINE BELT      MOSUNNY   84  70  61 NW8       29.90S
$$

MSZ080>082-292200-
COASTAL MISSISSIPPI

CITY           SKY/WX    TMP DP  RH WIND       PRES   REMARKS
BAY ST LOUIS   MOSUNNY   84  68  58 N6        29.86S
BILOXI         PTSUNNY   81  72  75 NE8       29.85F
PASCAGOULA     CLOUDY    81  73  76 N8        29.85F
GULFPORT       PTSUNNY   82  71  69 N7        29.85S
$$



USA.gov is the U.S. government's official web portal to all federal, state and local government web resources and services.